Regional Weather Roundup
Issued by NWS

Home | Current Version | Previous Version | Text Only | Print | Product List | Glossary On
Versions: 1 2 3 4 5 6 7 8 9 10 11 12 13 14 15 16 17 18 19 20 21 22 23 24 25 26 27 28 29 30 31 32 33 34 35 36 37 38 39 40 41 42 43 44 45 46 47 48 49 50
000
ASUS46 KSEW 201310
RWRWA

WASHINGTON REGIONAL WEATHER ROUNDUP
NATIONAL WEATHER SERVICE SEATTLE WA
600 AM PDT MON OCT 20 2014

NOTE:"FAIR" INDICATES FEW OR NO CLOUDS BELOW 12,000 FEET WITH NO
SIGNIFICANT WEATHER AND/OR OBSTRUCTIONS TO VISIBILITY.

WAZ505-507>509-201400-
SEATTLE, TACOMA, EVERETT, AND VICINITY

CITY           SKY/WX    TMP DP  RH WIND       PRES   REMARKS
EVERETT        CLOUDY    58  55  90 VRB5      29.70S
BOEING FIELD   CLOUDY    60  57  89 S6        29.70R
RENTON         CLOUDY    59  57  93 SE3       29.69S
SEATAC AIRPORT CLOUDY    59  56  89 S5        29.71R
JBLM-MCCHORD   LGT RAIN  57  57 100 CALM      29.71R
PUYALLUP       NOT AVBL
JBLM-FT LEWIS  DRIZZLE   58  57  99 SW3       29.70S
TACOMA NARROWS LGT RAIN  57  55  93 SW5       29.71R
$$

WAZ001-503-506-510-514-515-201400-
NORTH INTERIOR

CITY           SKY/WX    TMP DP  RH WIND       PRES   REMARKS
BELLINGHAM     LGT RAIN  59  55  87 S5        29.66S
FRIDAY HARBOR  CLOUDY    56  55  97 CALM      29.67R
EASTSOUND      RAIN      57  55  94 S3        29.65R
PORT ANGELES   CLOUDY    55  54  96 W3        29.66R
NAS WHIDBEY    CLOUDY    62  56  80 SE16      29.65F
BURLINGTON     CLOUDY    61 N/A N/A S10G21    29.68S
$$

WAZ020-022-039-040-504-511-512-201400-
SOUTHWEST INTERIOR

CITY           SKY/WX    TMP DP  RH WIND       PRES   REMARKS
SHELTON        CLOUDY    56  55  97 CALM      29.68R
OLYMPIA        CLOUDY    57  55  93 SW7       29.71R
CHEHALIS       PTSUNNY   59  57  94 S3        29.71S
KELSO          CLOUDY    59  55  88 S5        29.76R
VANCOUVER      CLOUDY    61  55  81 S3        29.75R
SCAPPOOSE, OR  LGT RAIN  59  56  89 S3        29.74R
PORTLAND, OR   LGT RAIN  60  57  89 S8        29.76R
$$

WAZ021-516-517-201400-
WASHINGTON COAST

CITY           SKY/WX    TMP DP  RH WIND       PRES   REMARKS
FORKS          LGT RAIN  56  56 100 SE6       29.65S FOG
HOQUIAM        CLOUDY    58  56  93 S10       29.70R
ASTORIA, OR    CLOUDY    56  52  86 S7        29.70S
$$

WAZ019-023-024-040-518-519-201400-
CASCADE MOUNTAINS AND COLUMBIA GORGE

CITY           SKY/WX    TMP DP  RH WIND       PRES   REMARKS
STAMPEDE PASS  NOT AVBL
TROUTDALE, OR  LGT RAIN  60  56  86 S5        29.75R
THE DALLES, OR MOCLDY    54  50  86 NE5       29.73S
$$

WAZ026-027-041>044-520-521-201400-
EAST SLOPES

CITY           SKY/WX    TMP DP  RH WIND       PRES   REMARKS
OMAK           MOCLDY    43  41  93 W3        29.72S
WENATCHEE      MOCLDY    53  48  83 W7        29.71S
ELLENSBURG     CLOUDY    48  44  86 S3        29.72S
YAKIMA         MOCLDY    45  43  93 CALM      29.73R
$$

WAZ028-034-035-201400-
COLUMBIA BASIN

CITY           SKY/WX    TMP DP  RH WIND       PRES   REMARKS
EPHRATA        CLEAR     49  45  86 N3        29.70R
MOSES LAKE     CLEAR     42  40  92 NW3       29.71R FOG
PASCO          PTCLDY    42  42 100 CALM      29.72S
HERMISTON, OR  CLEAR     43  40  89 S5        29.73S
$$

WAZ036>038-201400-
NORTHEAST WASHINGTON

CITY           SKY/WX    TMP DP  RH WIND       PRES   REMARKS
SPOKANE GEIGER CLEAR     47  45  93 NE6       29.74S
SPOKANE FELTS  CLEAR     49  45  86 CALM      29.75R
FAIRCHILD AFB  CLEAR     46  45  97 NE9       29.74S
COEURDALENE,ID CLEAR     45  41  87 E9        29.76F
DEER PARK      CLEAR     42  41  96 CALM      29.75S
$$

WAZ029>033-201400-
SOUTHEAST WASHINGTON

CITY           SKY/WX    TMP DP  RH WIND       PRES   REMARKS
PULLMAN        CLEAR     52  38  58 NE6       29.78R
LEWISTON, ID   CLEAR     50  42  74 SE3       29.76R
WALLA WALLA    CLEAR     49  45  86 CALM      29.73R FOG
PENDLETON, OR  CLEAR     44  41  89 N3        29.73S
$$


USA.gov is the U.S. government's official web portal to all federal, state and local government web resources and services.